Location: Unspecified
(0.0000°N, 0.0000°E)
Time: 06:43:25
(UTC+00:00)

TIROS 6 DEB - Pass Details

Date: 14 August 2024
Orbit: 609 x 625 km, 58.3° (Epoch: 04 September)

Event Time Altitude Azimuth Distance (km) Brightness Sun altitude
Rises 05:20:58 0° 199° (SSW) 2,899 ? -10.6°
Reaches altitude 10° 05:23:20 10° 193° (SSW) 1,989 ? -10.0°
Maximum altitude 05:27:42 48° 118° (ESE) 815 ? -9.0°
Drops below altitude 10° 05:32:01 10° 44° (NE) 1,972 ? -7.9°
Sets 05:34:21 0° 39° (NE) 2,871 ? -7.3°
